Home   Weather   Sylmar   Past weeks
Flag for USA

Past Weather in Sylmar, California, USA — Yesterday and Last 2 Weeks

Now
70 °F

Sunny.


Feels Like: 76 °F
Forecast: 90 / 67 °F
Wind: No wind

Location: Van Nuys Airport

Current Time: Oct 23, 2019 at 9:34:45 am

Latest Report: Oct 23, 2019 at 8:51 am


Visibility: 10 mi

Pressure: 29.91 "Hg

Humidity: 30%

Dew Point: 37 °F

Location of SylmarLocation

Past Weather in Sylmar — Graph

°F

Sylmar Temperature Yesterday

Maximum temperature yesterday: 98 °F (at 2:51 pm)
Minimum temperature yesterday: 63 °F (at 6:51 am)
Average temperature yesterday: 79 °F

High & Low Weather Summary for the Past Weeks

 TemperatureHumidityPressure
High98 °F (Oct 22, 2:51 pm)90% (Oct 9, 4:51 am)30.08 "Hg (Oct 9, 4:51 am)
Low53 °F (Oct 12, 6:51 am)2% (Oct 10, 4:51 pm)29.72 "Hg (Oct 17, 3:51 pm)
Average71 °F38%29.88 "Hg
* Reported Oct 8 7:51 am — Oct 23 7:51 am, Sylmar. Weather by CustomWeather, © 2019

Note: Actual official high and low records may vary slightly from our data, if they occured in-between our weather recording intervals... More about our weather records

Advertising

Sylmar Weather History for the Previous 24 Hours

Scroll right to see more
 ConditionsComfort  
Time TempWeatherWind HumidityBarometerVisibility
7:51 am
Wed, Oct 23
63 °FSunny.No wind40%29.90 "Hg10 mi
6:51 am60 °FClear.No wind47%29.90 "Hg10 mi
5:51 am61 °FClear.No wind44%29.89 "Hg10 mi
4:51 am62 °FClear.No wind43%29.88 "Hg10 mi
3:51 am63 °FClear.No wind41%29.89 "Hg10 mi
2:51 am65 °FClear.No wind37%29.90 "Hg10 mi
1:51 am66 °FClear.No wind37%29.92 "Hg10 mi
12:51 am68 °FClear.No wind33%29.93 "Hg10 mi
11:51 pm
Tue, Oct 22
69 °FClear.No wind31%29.93 "Hg10 mi
10:51 pm72 °FClear.3 mph28%29.95 "Hg10 mi
9:51 pm77 °FClear.5 mph24%29.95 "Hg10 mi
8:51 pm76 °FClear.No wind24%29.95 "Hg10 mi
7:51 pm81 °FClear.3 mph19%29.95 "Hg10 mi
6:51 pm83 °FClear.6 mph19%29.95 "Hg10 mi
5:51 pm87 °FSunny.7 mph15%29.93 "Hg10 mi
4:51 pm92 °FSunny.8 mph10%29.93 "Hg10 mi
3:51 pm96 °FSunny.10 mph9%29.93 "Hg10 mi
2:51 pm98 °FSunny.10 mph7%29.94 "Hg10 mi
1:51 pm97 °FSunny.10 mph7%29.96 "Hg10 mi
12:51 pm95 °FSunny.3 mph7%30.00 "Hg10 mi
11:51 am93 °FSunny.5 mph9%30.04 "Hg10 mi
10:51 am90 °FSunny.12 mph10%30.06 "Hg10 mi
9:51 am86 °FSunny.8 mph12%30.07 "Hg10 mi
Weather by CustomWeather, © 2019

See weather overview